Theta_e
326 325 324 324 322 320 319 319 319 319 319 319 319 319 319 318 318 318 318 318 318 318 317 317 317 318 318 315 314 330 341 339 321 313 319 322 319 319 319 324 328 328 330 334 334 334 333
327 325 325 324 323 321 319 319 320 319 319 319 318 319 319 318 318 318 318 317 317 318 318 318 319 318 314 310 321 328 327 327 313 313 319 323 320 321 319 322 326 331 332 332 332 331 331
326 326 325 324 323 321 319 319 320 319 318 319 319 318 318 318 318 317 317 317 316 317 318 318 319 318 315 314 321 322 325 319 315 315 320 324 324 320 320 324 333 334 327 328 328 329 328
326 326 326 324 323 322 320 318 319 320 318 318 318 318 318 318 318 317 316 316 316 316 318 318 318 318 314 321 323 325 328 316 318 320 324 325 324 319 317 329 329 327 326 318 325 328 328
325 325 325 325 323 321 319 318 318 319 319 319 318 318 317 317 317 316 316 315 317 319 319 320 318 317 313 315 314 324 326 318 319 319 322 323 320 315 317 316 319 324 315 316 319 327 326
324 324 324 324 322 321 320 318 317 319 319 319 318 318 317 316 315 315 315 315 321 317 320 322 320 314 318 312 318 322 325 323 317 317 317 316 314 311 313 316 309 313 317 317 317 323 325
324 324 323 322 320 321 320 319 318 318 319 319 319 318 317 317 315 313 314 321 319 318 320 315 315 314 314 319 321 317 321 320 316 314 309 312 307 304 311 320 319 317 317 315 319 324 320
323 323 322 321 319 320 320 319 318 319 318 318 318 318 317 316 314 313 314 317 316 317 311 319 315 315 317 319 312 315 317 311 310 306 310 307 303 310 315 319 317 318 317 315 321 323 319
321 322 321 321 320 320 320 319 318 318 318 318 318 317 316 315 314 313 318 319 323 322 311 312 314 313 313 318 312 313 314 311 307 305 307 306 307 311 312 315 315 317 316 317 316 319 319
321 321 320 320 320 319 319 319 318 318 317 317 317 316 315 312 311 322 318 323 323 323 307 307 310 313 315 314 311 318 317 313 309 304 306 307 312 310 309 314 318 312 323 319 318 313 308
321 320 320 320 320 319 318 318 318 318 317 317 315 314 313 311 315 314 320 323 324 320 294 309 311 320 317 311 313 313 317 313 306 306 306 304 308 308 307 310 320 312 321 321 317 314 312
320 320 320 320 320 319 318 317 318 317 317 316 314 314 312 316 317 318 322 323 320 305 294 305 311 310 308 312 312 313 312 315 313 308 308 308 313 311 311 316 318 319 320 316 314 311 305
317 318 319 319 319 319 318 317 317 316 316 314 313 311 312 319 320 325 324 318 304 299 307 304 306 308 308 308 309 310 307 306 305 300 301 306 309 312 314 311 318 315 313 307 302 304 304
318 317 318 317 317 318 318 317 317 316 315 313 310 308 315 319 325 325 321 311 299 303 303 307 307 309 304 308 308 308 306 304 309 307 304 301 300 309 314 312 312 311 311 306 298 300 303
317 316 317 316 316 317 317 317 316 315 314 312 309 321 322 325 323 323 314 303 303 305 307 306 306 303 305 308 308 307 307 306 308 310 303 303 301 312 314 315 314 310 307 314 310 307 305
316 316 316 316 315 316 317 317 316 315 313 311 319 324 322 323 325 321 312 301 304 308 309 308 303 306 303 305 304 306 307 310 309 311 312 308 302 309 312 313 313 311 314 306 310 300 297
317 317 315 316 316 316 317 317 316 314 312 311 319 317 322 323 324 316 307 305 305 308 310 307 305 304 305 304 306 305 306 310 311 310 312 310 306 305 310 307 306 306 306 308 309 308 300
317 316 316 315 316 316 317 317 315 313 310 311 320 312 321 325 312 313 308 307 303 307 311 308 308 307 306 307 306 306 305 309 312 312 307 310 306 302 305 311 312 310 307 307 302 303 307
317 316 315 315 315 316 316 316 315 312 311 317 315 318 321 322 307 308 308 307 308 307 307 306 307 308 310 306 303 307 308 312 311 310 309 311 305 299 302 307 311 306 308 309 307 307 305
317 317 315 315 315 315 316 315 314 312 312 315 317 310 314 315 314 310 307 306 305 308 306 307 307 309 308 306 308 305 307 311 311 311 319 314 307 304 298 303 308 307 308 307 306 301 303
316 316 317 317 316 316 316 315 315 313 312 315 316 313 315 307 310 309 309 308 303 303 308 308 308 307 307 305 306 305 308 309 310 313 310 309 303 305 305 307 307 307 308 308 305 307 303
316 315 316 317 317 315 315 315 315 313 312 319 316 316 318 311 311 308 303 305 303 304 304 304 304 308 307 306 308 305 308 309 308 311 311 310 303 305 303 306 308 304 308 309 308 307 307
315 315 316 317 317 317 315 315 316 314 312 324 323 324 318 310 308 306 307 307 305 305 306 305 305 307 308 310 311 312 313 311 312 310 307 306 306 305 300 305 304 301 306 307 309 310 309
315 316 316 317 317 317 317 316 316 316 314 317 324 322 317 308 310 307 308 306 304 306 305 306 305 305 312 318 315 313 312 311 310 310 311 308 307 305 301 303 295 305 312 312 310 315 318
315 315 316 316 316 317 317 317 317 317 315 316 320 321 318 310 311 309 307 306 308 309 305 306 307 310 313 311 307 306 305 306 308 310 309 310 307 302 298 294 302 305 310 308 306 306 316
314 314 315 316 316 316 317 317 317 317 316 315 322 327 322 315 310 313 308 308 307 308 309 309 313 313 311 306 305 301 298 297 298 304 311 309 311 304 302 296 291 304 311 314 312 304 317
314 315 315 316 316 316 316 317 317 316 316 315 318 327 322 316 316 314 309 309 312 309 308 311 310 310 310 304 301 300 301 301 295 300 301 302 305 299 300 298 301 308 312 313 298 306 317
314 315 315 315 315 315 315 316 317 315 317 314 318 329 323 318 318 316 315 313 311 309 306 312 311 309 308 303 303 303 303 304 303 304 303 297 296 300 302 299 295 312 311 303 315 317 318
314 315 315 315 315 315 315 316 317 315 317 315 315 328 327 321 319 321 320 321 317 315 312 313 310 314 311 307 308 307 305 304 303 298 310 300 305 303 302 304 314 316 314 317 318 318 320
Wind_Speed
13 13 12 11 11 11 12 12 11 11 11 11 11 11 11 10 10 10 10 11 11 11 10 10 10 10 10 9 12 11 10 10 11 13 18 18 17 14 15 4 7 6 6 13 8 7 2
11 11 12 12 11 12 11 12 11 10 10 11 11 11 11 11 11 10 10 11 11 12 11 10 9 9 8 12 4 12 8 12 14 17 18 19 13 13 15 2 4 7 9 15 8 6 2
12 11 10 11 11 11 11 12 12 11 11 11 11 11 11 11 11 11 11 11 12 12 11 9 7 8 11 16 3 8 11 13 16 18 18 17 17 14 12 5 16 15 15 12 9 2 4
12 12 11 9 10 10 12 12 12 11 11 11 11 11 12 12 12 12 12 12 13 12 11 8 7 9 9 4 5 8 11 14 15 17 19 13 15 11 16 8 5 10 6 6 6 7 3
12 12 11 9 10 11 12 12 12 13 12 10 10 11 12 12 13 12 12 14 15 12 10 8 8 10 9 4 10 13 11 13 15 14 15 12 13 13 15 13 13 8 7 9 6 3 3
12 12 12 12 12 11 12 12 12 13 12 11 11 11 11 12 13 13 14 14 7 4 8 10 12 11 13 11 9 7 11 11 13 13 14 8 8 13 15 13 10 9 9 7 10 5 3
13 13 13 13 14 12 12 12 13 14 14 12 12 11 11 11 11 11 13 6 7 8 10 11 15 14 5 7 5 10 11 11 13 12 13 14 11 16 19 19 7 6 4 10 9 12 5
14 13 13 14 15 13 13 12 14 13 14 14 13 12 12 10 11 11 8 8 11 13 15 18 6 9 9 4 10 10 11 12 13 13 17 12 17 19 20 5 10 17 13 15 11 16 3
14 13 13 13 13 12 13 13 14 14 14 14 14 13 13 12 13 7 11 16 12 10 12 4 7 13 5 9 10 12 15 16 13 15 16 18 16 19 20 7 6 24 10 14 9 11 3
13 13 13 14 14 13 14 15 15 15 14 15 15 14 13 17 6 9 14 2 6 8 5 3 8 5 6 10 10 13 16 12 9 14 17 16 15 18 18 11 11 8 18 12 11 8 3
14 13 13 14 14 16 15 15 16 16 15 15 17 16 15 7 14 10 8 5 8 9 4 3 6 5 7 10 13 13 12 13 14 13 12 12 12 10 16 17 18 13 12 18 14 8 9
14 15 15 15 14 14 17 16 16 17 17 16 18 15 13 7 7 15 14 8 8 1 5 4 6 8 10 14 7 13 10 13 13 12 12 17 13 7 9 8 12 19 21 16 13 5 5
16 16 16 15 16 15 15 19 17 19 19 18 17 11 7 10 6 6 7 7 3 7 2 6 6 4 8 11 10 10 13 12 11 9 11 13 9 5 9 15 8 7 14 5 4 7 4
15 15 15 15 16 16 16 20 18 20 21 20 17 12 13 9 8 12 7 8 5 8 9 1 6 10 8 13 8 9 11 12 17 15 10 10 13 15 15 18 10 11 12 5 3 4 2
16 17 15 17 16 17 17 18 19 21 22 21 23 6 6 10 12 9 8 9 8 12 8 9 2 3 10 10 6 9 13 14 13 8 11 8 15 14 13 14 13 13 11 16 5 8 7
16 17 15 15 18 17 18 18 20 22 23 20 6 9 9 4 5 6 9 6 6 8 10 6 5 5 8 13 8 3 9 5 2 8 8 7 13 16 13 11 15 16 7 11 6 4 5
15 15 17 15 16 18 19 19 20 23 27 16 5 7 4 6 6 8 11 9 3 5 7 9 13 3 6 5 6 1 10 4 4 1 5 13 12 2 11 10 13 11 12 10 13 9 5
13 14 16 17 16 17 19 19 20 22 31 3 7 11 6 4 9 9 4 4 3 3 4 4 7 9 7 7 11 6 8 9 12 10 4 10 11 8 12 13 16 16 16 17 10 11 10
13 15 17 17 17 17 18 19 18 16 15 8 7 10 5 6 9 11 8 5 8 10 6 8 8 4 10 11 4 11 11 1 3 5 10 12 5 9 13 7 8 13 17 14 15 15 14
14 15 17 18 18 19 18 17 17 15 12 6 6 5 6 7 11 12 4 3 5 7 6 6 5 7 6 7 8 2 1 8 1 5 7 4 12 12 6 8 11 16 19 17 16 12 14
15 16 16 16 17 17 18 17 18 16 15 6 6 8 8 2 3 3 6 6 2 3 3 1 2 6 8 8 7 3 5 2 7 6 5 5 11 13 4 11 10 15 20 20 18 16 17
14 16 15 16 15 16 17 17 18 17 24 6 8 9 11 7 3 7 6 2 4 5 4 5 5 7 7 4 5 8 6 6 3 5 12 10 10 14 14 9 12 15 19 22 18 20 17
15 15 15 15 15 13 15 16 16 16 14 7 6 8 8 7 6 10 1 7 7 6 3 4 7 10 8 13 11 13 9 9 1 6 7 10 14 5 13 7 16 9 10 14 15 9 5
15 16 16 15 15 14 12 13 15 13 10 7 10 8 8 11 9 8 8 5 3 5 8 4 4 7 7 8 8 8 13 7 5 9 13 15 9 3 7 10 11 10 17 17 20 20 19
16 16 17 17 16 14 12 11 13 13 11 7 10 9 9 12 9 10 5 5 3 5 10 4 5 9 8 7 8 7 6 8 10 9 12 4 8 8 2 4 18 1 9 12 15 19 16
15 16 17 16 15 14 12 12 11 12 11 8 8 7 7 8 8 12 6 4 9 9 11 7 5 5 8 8 10 5 2 6 9 4 9 10 7 7 1 5 1 13 15 18 16 6 20
15 15 15 15 14 12 12 13 11 11 10 7 8 13 6 8 15 6 4 2 4 5 1 8 4 5 6 8 9 7 6 13 7 2 6 10 8 9 12 4 4 9 15 11 8 8 13
14 15 14 13 13 11 11 13 12 11 9 7 9 9 6 8 11 6 5 1 2 4 7 3 7 5 6 4 5 3 2 4 4 1 8 6 4 5 6 4 3 11 14 1 1 3 7
15 13 12 12 12 11 11 12 11 10 8 6 6 4 4 5 8 6 7 6 6 7 6 5 2 9 5 6 4 4 1 3 3 4 5 3 3 6 9 3 4 6 9 7 8 5 6
Wind_Direction
5 7 5 2 1 359 355 354 349 344 339 343 342 339 333 327 323 318 314 310 309 304 301 299 303 309 286 224 251 137 173 187 188 200 215 228 223 222 236 304 139 220 96 105 113 134 128
350 359 2 3 1 1 356 354 352 343 336 335 341 337 332 328 322 318 311 307 304 302 299 295 295 306 256 249 16 134 120 172 194 199 213 229 224 229 249 236 357 135 133 120 126 102 87
349 349 354 2 2 358 356 350 351 345 339 338 336 337 332 330 324 318 310 304 297 291 293 287 285 275 264 256 49 278 149 191 207 203 213 224 230 238 237 209 157 139 137 131 153 44 90
351 355 352 355 359 355 356 352 349 345 338 341 337 335 332 330 324 320 314 307 295 284 280 274 270 257 263 41 349 264 175 186 211 211 237 218 240 263 271 110 246 135 112 173 119 160 18
357 356 355 351 351 357 355 352 345 343 335 333 331 333 331 328 325 320 311 302 291 272 260 247 238 224 253 131 213 223 182 202 191 205 228 235 224 246 246 238 226 180 175 127 143 199 116
357 1 360 1 2 353 353 350 343 337 333 335 335 331 325 325 328 319 309 292 313 249 218 218 257 261 252 240 185 166 206 209 189 205 213 213 211 236 239 230 232 198 224 124 137 133 149
3 359 359 4 1 350 353 346 338 339 335 335 329 324 320 321 323 321 309 218 204 198 235 259 140 252 133 89 115 209 172 191 200 191 206 201 216 220 220 221 191 151 87 123 135 144 132
3 357 359 358 358 352 351 340 333 335 332 327 323 322 319 319 320 319 275 260 25 334 310 212 279 299 299 138 198 179 192 187 198 204 213 177 225 236 226 279 58 281 149 151 131 140 114
1 357 357 350 348 349 343 334 334 332 328 324 321 323 325 322 322 272 240 283 322 325 296 158 190 218 181 226 212 170 199 213 190 222 213 232 209 230 243 205 251 261 150 158 128 141 82
358 354 351 347 344 350 342 336 334 329 326 322 323 324 327 322 286 293 241 222 278 323 345 181 180 91 191 215 223 167 212 217 196 219 235 238 252 202 238 198 212 256 96 105 128 171 203
350 352 347 344 345 349 344 335 330 326 322 321 327 320 319 323 318 283 2 301 356 266 316 25 90 107 190 228 115 163 195 238 265 220 223 222 246 247 223 236 165 104 115 144 165 184 152
347 351 347 344 344 338 342 337 327 326 322 320 320 312 314 214 222 254 299 308 276 173 249 146 156 176 195 208 201 133 190 251 269 273 234 258 211 232 248 244 246 120 126 105 102 213 232
352 350 342 344 338 332 329 340 330 327 323 317 318 298 265 310 272 341 315 283 221 260 82 134 240 163 200 269 150 169 196 208 226 208 218 233 250 267 226 238 184 220 193 167 197 206 236
350 348 341 339 336 331 328 339 333 327 324 320 318 302 207 242 291 298 282 258 301 337 85 85 291 142 85 284 134 169 190 210 239 235 217 204 205 210 221 238 177 213 247 197 291 329 60
348 348 342 342 339 331 327 334 334 328 326 325 313 204 240 238 214 251 272 245 297 14 340 357 215 89 297 112 281 184 201 217 205 250 284 309 230 180 195 238 252 204 214 245 163 128 272
346 344 342 339 341 333 330 332 336 330 327 330 297 269 247 202 190 240 265 329 35 354 313 287 341 65 15 299 214 174 310 48 343 307 358 308 302 189 193 192 259 274 268 218 150 153 301
343 338 342 335 335 336 331 334 339 334 328 326 233 260 128 200 219 246 264 61 81 38 318 327 327 264 130 6 285 345 309 326 157 197 313 298 295 170 154 203 235 220 254 264 268 178 140
333 334 337 339 333 336 335 333 340 340 333 192 284 273 142 188 254 234 76 59 332 66 184 330 292 327 76 288 34 31 343 6 352 331 263 222 288 283 256 206 215 251 225 243 258 251 239
328 332 340 338 335 333 335 333 333 345 5 317 267 258 166 224 273 294 101 166 314 7 47 351 343 2 349 317 323 130 202 240 288 285 32 343 263 267 257 236 238 215 247 252 251 272 280
324 327 332 335 337 334 332 333 331 336 341 299 275 283 172 219 265 293 131 204 178 146 290 333 331 284 267 247 262 48 358 272 225 35 355 312 284 302 12 271 272 302 317 249 255 243 260
322 326 328 326 334 334 331 331 330 332 334 291 246 290 317 304 212 346 335 25 314 297 89 223 194 290 356 336 330 304 19 28 305 144 262 265 271 288 278 300 286 284 294 304 249 256 249
324 325 323 322 324 330 333 330 330 334 331 244 283 332 336 289 119 298 139 150 318 41 34 330 278 50 316 351 342 312 315 331 131 317 328 271 252 276 287 260 245 272 251 287 243 245 259
318 315 314 317 320 320 330 330 330 340 340 283 318 323 278 291 253 242 40 82 22 37 129 303 320 301 348 25 1 331 304 295 28 163 32 317 287 356 301 1 340 263 300 285 294 254 294
311 312 314 315 315 315 317 329 330 339 5 306 299 312 284 266 259 262 103 77 68 28 328 352 329 284 40 321 305 259 274 295 276 261 205 237 274 304 285 358 252 26 11 18 356 18 5
310 311 310 311 312 309 315 321 325 330 342 298 306 296 285 284 291 281 159 170 141 165 250 299 56 339 326 285 270 253 258 246 301 310 292 5 312 277 69 343 297 202 25 14 6 326 9
306 308 304 304 304 302 307 313 317 323 337 304 285 300 277 293 288 307 193 151 268 232 175 202 131 307 296 268 257 221 142 62 314 356 312 331 357 289 2 299 303 320 319 320 337 53 344
305 304 303 302 300 299 302 309 309 314 327 315 293 297 274 274 274 295 227 247 203 309 342 187 147 229 224 258 267 298 111 135 217 232 39 339 321 280 278 146 88 264 315 351 66 357 336
300 300 301 301 297 293 292 300 302 308 322 320 290 271 287 286 291 295 330 135 240 248 291 89 255 192 242 255 292 344 68 228 319 253 162 140 315 318 350 321 114 187 47 15 342 283 331
301 296 295 294 291 286 283 292 292 295 304 327 271 211 228 262 330 315 33 37 5 344 336 332 42 234 357 321 352 306 323 214 261 290 128 208 273 358 142 248 126 69 96 76 8 22 341